Simultaneous Nadir Overpasses (SNOs) Predictions

Prediction of SNOs between AQUA and NPP Satellite Orbit:

Table of predicted SNOs for the next 14.0 days since TLE Epoch: 1/23/2021
Index Date (AQUA) Time (AQUA) Lat,Lon (AQUA) SZA (AQUA ) Date (NPP) Time (NPP) Lat,Lon (NPP) SZA (NPP ) Distance(km) Time Diff (sec)
1 01/24/2021 21:48:48 -75.33, -90.06 62.88 01/24/2021 21:47:37 -75.33, -90.07 62.82 0.28 71
2 01/24/2021 22:37:48 76.56, 81.34 115.73 01/24/2021 22:37:54 76.56, 81.41 115.71 1.84 6
3 01/27/2021 14:05:05 -75.94, 27.59 64.20 01/27/2021 14:04:18 -75.95, 27.67 64.17 2.28 47
4 01/27/2021 14:54:14 76.72,-162.23 114.92 01/27/2021 14:54:45 76.71,-162.27 114.90 1.11 31
5 01/30/2021 06:21:33 -76.05, 143.81 65.00 01/30/2021 06:21:11 -76.05, 143.78 64.97 0.66 22
6 01/30/2021 07:10:35 77.15, -44.76 113.72 01/30/2021 07:11:30 77.16, -44.68 113.66 2.22 55
7 02/01/2021 21:49:11 74.25, 87.17 116.29 02/01/2021 21:47:57 74.29, 87.05 116.36 6.64 74
8 02/01/2021 22:37:52 -76.59, -98.56 66.34 02/01/2021 22:37:54 -76.60, -98.47 66.36 2.58 2
9 02/01/2021 23:22:21 79.11, 165.01 97.07 02/01/2021 23:23:33 78.41, 162.14 96.70 99.10 72
10 02/04/2021 14:05:08 75.91,-152.51 113.70 02/04/2021 14:04:18 75.92,-152.43 113.72 2.24 50



Historial Predications of SNOs between AQUA and NPP
